AAL2190 KOMA-KPHX

Flight info

Callsign AAL2190
Flight time 2h 33m
Altitude 38000
Route LNK KD60A GUP EAGUL6
Aircraft B738/M-SDE2E3FGHIRWXY/LB1

Departure

Time 2026-04-25 00:59
Airport Eppley Airfield (KOMA)

Arrival

Time 2026-04-25 03:33
Airport Phoenix Sky Harbor International Airport (KPHX)
Time Latitude Longitude Altitude Speed Heading
2026-04-25 00:21 41.30181 -95.89814 984 ft 0 kts 210°
2026-04-25 00:44 41.30194 -95.89804 993 ft 4 kts 217°
2026-04-25 00:45 41.30210 -95.89781 989 ft 4 kts 265°
2026-04-25 00:45 41.30207 -95.89766 989 ft 1 kts 324°
2026-04-25 00:45 41.30204 -95.89763 989 ft 0 kts 324°
2026-04-25 00:54 41.30219 -95.89779 991 ft 8 kts 319°
2026-04-25 00:54 41.30262 -95.89833 992 ft 9 kts 320°
2026-04-25 00:54 41.30311 -95.89882 988 ft 10 kts 323°
2026-04-25 00:55 41.30381 -95.89947 990 ft 13 kts 325°
2026-04-25 00:55 41.30453 -95.90016 986 ft 13 kts 324°
2026-04-25 00:55 41.30524 -95.90093 987 ft 14 kts 319°
2026-04-25 00:55 41.30605 -95.90184 991 ft 16 kts 323°
2026-04-25 00:56 41.30699 -95.90272 983 ft 17 kts 324°
2026-04-25 00:56 41.30792 -95.90362 989 ft 16 kts 324°
2026-04-25 00:56 41.30881 -95.90446 984 ft 15 kts 325°
2026-04-25 00:56 41.30967 -95.90526 990 ft 15 kts 323°
2026-04-25 00:57 41.31049 -95.90605 994 ft 14 kts 324°
2026-04-25 00:57 41.31128 -95.90680 993 ft 14 kts 324°
2026-04-25 00:57 41.31211 -95.90760 989 ft 15 kts 324°
2026-04-25 00:57 41.31298 -95.90754 989 ft 14 kts 52°
2026-04-25 00:58 41.31350 -95.90646 993 ft 14 kts 60°
2026-04-25 00:58 41.31330 -95.90559 990 ft 0 kts 142°
2026-04-25 00:58 41.31259 -95.90489 997 ft 45 kts 143°
2026-04-25 00:59 41.30753 -95.90006 987 ft 129 kts 144°
2026-04-25 00:59 41.29843 -95.89134 1090 ft 188 kts 143°
2026-04-25 00:59 41.28679 -95.88054 1522 ft 216 kts 142°
2026-04-25 00:59 41.27405 -95.86837 2117 ft 235 kts 143°
2026-04-25 01:00 41.26069 -95.85574 2594 ft 238 kts 143°
2026-04-25 01:00 41.24704 -95.84286 3084 ft 242 kts 143°
2026-04-25 01:00 41.23318 -95.82995 3548 ft 243 kts 146°
2026-04-25 01:00 41.21750 -95.82175 4020 ft 247 kts 170°
2026-04-25 01:01 41.20021 -95.82272 4554 ft 252 kts 194°
2026-04-25 01:01 41.18437 -95.83283 5056 ft 257 kts 217°
2026-04-25 01:01 41.17194 -95.85007 5589 ft 261 kts 230°
2026-04-25 01:01 41.16079 -95.86921 6088 ft 261 kts 234°
2026-04-25 01:02 41.15301 -95.89087 6578 ft 260 kts 250°
2026-04-25 01:02 41.14749 -95.91368 7067 ft 261 kts 251°
2026-04-25 01:02 41.14199 -95.93667 7562 ft 261 kts 251°
2026-04-25 01:02 41.13645 -95.95930 8054 ft 261 kts 250°
2026-04-25 01:03 41.13073 -95.98210 8546 ft 260 kts 250°
2026-04-25 01:03 41.12492 -96.00475 9070 ft 259 kts 250°
2026-04-25 01:03 41.11907 -96.02724 9587 ft 258 kts 250°
2026-04-25 01:03 41.11315 -96.04969 10097 ft 257 kts 250°
2026-04-25 01:04 41.10722 -96.07202 10577 ft 258 kts 250°
2026-04-25 01:04 41.10121 -96.09452 11072 ft 259 kts 250°
2026-04-25 01:04 41.09514 -96.11716 11574 ft 261 kts 250°
2026-04-25 01:04 41.08902 -96.13989 12080 ft 263 kts 250°
2026-04-25 01:05 41.08280 -96.16292 12601 ft 265 kts 250°
2026-04-25 01:05 41.07654 -96.18604 13126 ft 267 kts 251°
2026-04-25 01:05 41.07028 -96.20913 13493 ft 278 kts 251°
2026-04-25 01:05 41.06334 -96.23474 13692 ft 303 kts 251°
2026-04-25 01:06 41.05605 -96.26161 13849 ft 326 kts 251°
2026-04-25 01:06 41.04810 -96.29080 14014 ft 347 kts 251°
2026-04-25 01:06 41.03968 -96.32169 14179 ft 366 kts 251°
2026-04-25 01:06 41.03088 -96.35392 14602 ft 376 kts 251°
2026-04-25 01:07 41.02194 -96.38656 15235 ft 378 kts 251°
2026-04-25 01:07 41.01292 -96.41947 15911 ft 380 kts 251°
2026-04-25 01:07 41.00387 -96.45248 16543 ft 383 kts 251°
2026-04-25 01:07 40.99474 -96.48571 17187 ft 386 kts 251°
2026-04-25 01:08 40.98553 -96.51923 17819 ft 388 kts 251°
2026-04-25 01:08 40.97636 -96.55253 18360 ft 392 kts 251°
2026-04-25 01:08 40.96698 -96.58656 18847 ft 395 kts 251°
2026-04-25 01:08 40.95752 -96.62087 19379 ft 397 kts 251°
2026-04-25 01:09 40.94802 -96.65525 19898 ft 400 kts 251°
2026-04-25 01:09 40.93840 -96.69004 20403 ft 403 kts 251°
2026-04-25 01:09 40.92873 -96.72493 20761 ft 409 kts 251°
2026-04-25 01:09 40.91894 -96.76043 21207 ft 412 kts 251°
2026-04-25 01:10 40.90931 -96.79619 21739 ft 413 kts 251°
2026-04-25 01:10 40.89973 -96.83216 22231 ft 415 kts 251°
2026-04-25 01:10 40.89017 -96.86819 22716 ft 417 kts 251°
2026-04-25 01:10 40.88053 -96.90444 23187 ft 419 kts 251°
2026-04-25 01:11 40.87080 -96.94095 23578 ft 422 kts 251°
2026-04-25 01:11 40.86101 -96.97759 23948 ft 424 kts 251°
2026-04-25 01:11 40.85118 -97.01425 24321 ft 425 kts 251°
2026-04-25 01:11 40.84125 -97.05119 24704 ft 427 kts 251°
2026-04-25 01:12 40.83128 -97.08821 25063 ft 429 kts 251°
2026-04-25 01:12 40.82127 -97.12534 25414 ft 430 kts 251°
2026-04-25 01:12 40.81120 -97.16261 25751 ft 432 kts 251°
2026-04-25 01:12 40.80111 -97.19990 26079 ft 434 kts 251°
2026-04-25 01:13 40.79102 -97.23714 26392 ft 435 kts 251°
2026-04-25 01:13 40.78079 -97.27484 26710 ft 437 kts 251°
2026-04-25 01:13 40.77049 -97.31273 26999 ft 439 kts 251°
2026-04-25 01:13 40.76018 -97.35063 27311 ft 439 kts 251°
2026-04-25 01:14 40.74985 -97.38850 27730 ft 438 kts 251°
2026-04-25 01:14 40.73957 -97.42614 28206 ft 435 kts 252°
2026-04-25 01:14 40.72932 -97.46360 28680 ft 433 kts 252°
2026-04-25 01:14 40.71913 -97.50080 29124 ft 431 kts 252°
2026-04-25 01:15 40.70895 -97.53795 29553 ft 430 kts 252°
2026-04-25 01:15 40.69880 -97.57489 30000 ft 428 kts 252°
2026-04-25 01:15 40.68867 -97.61172 30359 ft 426 kts 252°
2026-04-25 01:15 40.67857 -97.64841 30724 ft 425 kts 252°
2026-04-25 01:16 40.66862 -97.68447 31036 ft 425 kts 252°
2026-04-25 01:16 40.65852 -97.72104 31356 ft 424 kts 252°
2026-04-25 01:16 40.64844 -97.75749 31674 ft 423 kts 252°
2026-04-25 01:16 40.63838 -97.79384 31920 ft 424 kts 252°
2026-04-25 01:17 40.62822 -97.83045 32187 ft 424 kts 252°
2026-04-25 01:17 40.62154 -97.85451 32411 ft 424 kts 252°
2026-04-25 01:17 40.60802 -97.90309 32881 ft 421 kts 252°
2026-04-25 01:17 40.59792 -97.93933 33197 ft 421 kts 252°
2026-04-25 01:18 40.58785 -97.97545 33479 ft 421 kts 253°
2026-04-25 01:18 40.57778 -98.01149 33759 ft 420 kts 253°
2026-04-25 01:18 40.56769 -98.04756 34032 ft 420 kts 252°
2026-04-25 01:18 40.55761 -98.08353 34296 ft 419 kts 252°
2026-04-25 01:19 40.54753 -98.11945 34528 ft 419 kts 252°
2026-04-25 01:19 40.53756 -98.15494 34753 ft 418 kts 252°
2026-04-25 01:19 40.52747 -98.19078 35000 ft 418 kts 252°
2026-04-25 01:19 40.51740 -98.22653 35250 ft 417 kts 252°
2026-04-25 01:20 40.50721 -98.26262 35480 ft 416 kts 252°
2026-04-25 01:20 40.49722 -98.29798 35701 ft 416 kts 252°
2026-04-25 01:20 40.48712 -98.33368 35939 ft 416 kts 252°
2026-04-25 01:20 40.47705 -98.36922 36184 ft 415 kts 252°
2026-04-25 01:21 40.46700 -98.40465 36425 ft 414 kts 252°
2026-04-25 01:21 40.45693 -98.44008 36663 ft 413 kts 251°
2026-04-25 01:21 40.44689 -98.47541 36879 ft 413 kts 251°
2026-04-25 01:21 40.43683 -98.51072 37119 ft 412 kts 251°
2026-04-25 01:22 40.42679 -98.54588 37380 ft 410 kts 251°
2026-04-25 01:22 40.41678 -98.58092 37607 ft 410 kts 251°
2026-04-25 01:22 40.40677 -98.61592 37789 ft 410 kts 251°
2026-04-25 01:23 40.38662 -98.68624 37861 ft 413 kts 251°
2026-04-25 01:23 40.36654 -98.75612 37863 ft 410 kts 251°
2026-04-25 01:24 40.34643 -98.82589 37864 ft 408 kts 251°
2026-04-25 01:24 40.32633 -98.89544 37863 ft 406 kts 251°
2026-04-25 01:25 40.30628 -98.96466 37858 ft 406 kts 251°
2026-04-25 01:25 40.28623 -99.03368 37863 ft 406 kts 251°
2026-04-25 01:26 40.26611 -99.10278 37841 ft 406 kts 251°
2026-04-25 01:26 40.24589 -99.17202 37851 ft 408 kts 251°
2026-04-25 01:27 40.22564 -99.24118 37851 ft 411 kts 251°
2026-04-25 01:27 40.20509 -99.31118 37850 ft 413 kts 251°
2026-04-25 01:28 40.17749 -99.40492 37855 ft 416 kts 251°
2026-04-25 01:28 40.15308 -99.48753 37841 ft 417 kts 251°
2026-04-25 01:29 40.13210 -99.55833 37849 ft 418 kts 251°
2026-04-25 01:29 40.11456 -99.61737 37847 ft 418 kts 251°
2026-04-25 01:30 40.09344 -99.68830 37843 ft 418 kts 250°
2026-04-25 01:30 40.07228 -99.75920 37833 ft 418 kts 250°
2026-04-25 01:31 40.05114 -99.82982 37820 ft 417 kts 251°
2026-04-25 01:31 40.03020 -99.89964 37819 ft 414 kts 251°
2026-04-25 01:32 40.00923 -99.96933 37818 ft 411 kts 251°
2026-04-25 01:32 39.98481 -100.03676 37828 ft 412 kts 243°
2026-04-25 01:33 39.95584 -100.10114 37816 ft 411 kts 243°
2026-04-25 01:33 39.92683 -100.16521 37819 ft 410 kts 243°
2026-04-25 01:34 39.89806 -100.22925 37803 ft 409 kts 243°
2026-04-25 01:34 39.86936 -100.29338 37818 ft 411 kts 243°
2026-04-25 01:35 39.84053 -100.35782 37791 ft 413 kts 243°
2026-04-25 01:35 39.81165 -100.42226 37781 ft 416 kts 243°
2026-04-25 01:36 39.78233 -100.48751 37786 ft 419 kts 243°
2026-04-25 01:36 39.75283 -100.55300 37771 ft 420 kts 243°
2026-04-25 01:37 39.72322 -100.61860 37776 ft 421 kts 243°
2026-04-25 01:37 39.69352 -100.68428 37786 ft 422 kts 243°
2026-04-25 01:38 39.66392 -100.74959 37776 ft 423 kts 243°
2026-04-25 01:38 39.63402 -100.81543 37801 ft 423 kts 243°
2026-04-25 01:39 39.60405 -100.88129 37785 ft 423 kts 243°
2026-04-25 01:39 39.57410 -100.94694 37792 ft 422 kts 242°
2026-04-25 01:40 39.54415 -101.01249 37794 ft 422 kts 242°
2026-04-25 01:40 39.51442 -101.07740 37793 ft 422 kts 242°
2026-04-25 01:41 39.48449 -101.14261 37790 ft 420 kts 242°
2026-04-25 01:41 39.45469 -101.20742 37786 ft 418 kts 242°
2026-04-25 01:42 39.42497 -101.27190 37759 ft 416 kts 242°
2026-04-25 01:42 39.39530 -101.33617 37761 ft 415 kts 242°
2026-04-25 01:43 39.36585 -101.39982 37756 ft 414 kts 242°
2026-04-25 01:43 39.33633 -101.46348 37754 ft 412 kts 242°
2026-04-25 01:44 39.30682 -101.52702 37757 ft 411 kts 242°
2026-04-25 01:44 39.27737 -101.59027 37756 ft 411 kts 242°
2026-04-25 01:45 39.24794 -101.65337 37757 ft 410 kts 242°
2026-04-25 01:45 39.21845 -101.71649 37760 ft 411 kts 242°
2026-04-25 01:46 39.18889 -101.77961 37741 ft 411 kts 243°
2026-04-25 01:46 39.15947 -101.84231 37743 ft 411 kts 243°
2026-04-25 01:47 39.12986 -101.90531 37737 ft 411 kts 243°
2026-04-25 01:47 39.10016 -101.96835 37734 ft 411 kts 243°
2026-04-25 01:48 39.07046 -102.03127 37731 ft 411 kts 243°
2026-04-25 01:48 39.04073 -102.09413 37732 ft 411 kts 243°
2026-04-25 01:49 39.01100 -102.15686 37729 ft 410 kts 243°
2026-04-25 01:49 38.98130 -102.21940 37740 ft 409 kts 243°
2026-04-25 01:50 38.95161 -102.28181 37737 ft 409 kts 243°
2026-04-25 01:50 38.92192 -102.34410 37707 ft 409 kts 243°
2026-04-25 01:51 38.89239 -102.40590 37724 ft 408 kts 243°
2026-04-25 01:51 38.86277 -102.46781 37732 ft 407 kts 243°
2026-04-25 01:52 38.83313 -102.52963 37729 ft 406 kts 243°
2026-04-25 01:52 38.80352 -102.59126 37730 ft 406 kts 243°
2026-04-25 01:53 38.77387 -102.65288 37729 ft 406 kts 243°
2026-04-25 01:53 38.74422 -102.71437 37727 ft 405 kts 243°
2026-04-25 01:54 38.71475 -102.77536 37745 ft 405 kts 243°
2026-04-25 01:54 38.68509 -102.83663 37728 ft 404 kts 243°
2026-04-25 01:55 38.65543 -102.89778 37722 ft 403 kts 243°
2026-04-25 01:55 38.62583 -102.95868 37673 ft 403 kts 243°
2026-04-25 01:56 38.59630 -103.01934 37706 ft 402 kts 243°
2026-04-25 01:56 38.56677 -103.07988 37710 ft 401 kts 243°
2026-04-25 01:57 38.52241 -103.17063 37713 ft 401 kts 244°
2026-04-25 01:58 38.49282 -103.23099 37702 ft 400 kts 244°
2026-04-25 01:58 38.46335 -103.29101 37702 ft 399 kts 244°
2026-04-25 01:59 38.43382 -103.35106 37699 ft 398 kts 244°
2026-04-25 01:59 38.40454 -103.41047 37692 ft 398 kts 243°
2026-04-25 02:00 38.37504 -103.47022 37702 ft 398 kts 244°
2026-04-25 02:00 38.34559 -103.52977 37697 ft 396 kts 243°
2026-04-25 02:01 38.31618 -103.58911 37697 ft 395 kts 244°
2026-04-25 02:01 38.28687 -103.64815 37701 ft 394 kts 244°
2026-04-25 02:02 38.25759 -103.70704 37699 ft 394 kts 243°
2026-04-25 02:02 38.22829 -103.76584 37699 ft 393 kts 243°
2026-04-25 02:03 38.19898 -103.82458 37690 ft 393 kts 243°
2026-04-25 02:03 38.16980 -103.88292 37667 ft 393 kts 243°
2026-04-25 02:04 38.14044 -103.94153 37669 ft 393 kts 243°
2026-04-25 02:04 38.11105 -104.00013 37665 ft 394 kts 243°
2026-04-25 02:05 38.08148 -104.05897 37670 ft 395 kts 243°
2026-04-25 02:05 38.05182 -104.11785 37669 ft 396 kts 243°
2026-04-25 02:06 38.02227 -104.17642 37660 ft 396 kts 243°
2026-04-25 02:06 37.99244 -104.23541 37643 ft 394 kts 243°
2026-04-25 02:07 37.96281 -104.29392 37665 ft 394 kts 243°
2026-04-25 02:07 37.93342 -104.35185 37669 ft 393 kts 243°
2026-04-25 02:08 37.90380 -104.41017 37683 ft 393 kts 243°
2026-04-25 02:08 37.87416 -104.46840 37679 ft 393 kts 243°
2026-04-25 02:09 37.84448 -104.52659 37702 ft 393 kts 243°
2026-04-25 02:09 37.81473 -104.58485 37710 ft 393 kts 242°
2026-04-25 02:10 37.78497 -104.64297 37700 ft 393 kts 242°
2026-04-25 02:10 37.75541 -104.70063 37737 ft 394 kts 242°
2026-04-25 02:11 37.72560 -104.75870 37736 ft 394 kts 242°
2026-04-25 02:11 37.69577 -104.81667 37736 ft 393 kts 242°
2026-04-25 02:12 37.66589 -104.87464 37741 ft 394 kts 242°
2026-04-25 02:12 37.63591 -104.93274 37746 ft 395 kts 242°
2026-04-25 02:13 37.60584 -104.99088 37767 ft 396 kts 242°
2026-04-25 02:13 37.57562 -105.04921 37776 ft 398 kts 242°
2026-04-25 02:14 37.54526 -105.10771 37802 ft 399 kts 242°
2026-04-25 02:14 37.51476 -105.16637 37789 ft 401 kts 242°
2026-04-25 02:15 37.48418 -105.22505 37834 ft 401 kts 242°
2026-04-25 02:15 37.45374 -105.28341 37841 ft 402 kts 242°
2026-04-25 02:16 37.42323 -105.34173 37839 ft 393 kts 242°
2026-04-25 02:16 37.39340 -105.39865 37845 ft 388 kts 242°
2026-04-25 02:17 37.36367 -105.45537 37848 ft 388 kts 242°
2026-04-25 02:17 37.33894 -105.50247 37867 ft 388 kts 242°
2026-04-25 02:18 37.30916 -105.55910 37870 ft 389 kts 242°
2026-04-25 02:18 37.27927 -105.61583 37876 ft 389 kts 242°
2026-04-25 02:19 37.24934 -105.67252 37849 ft 389 kts 242°
2026-04-25 02:19 37.21936 -105.72922 37845 ft 389 kts 242°
2026-04-25 02:20 37.18939 -105.78579 37836 ft 389 kts 242°
2026-04-25 02:20 37.15944 -105.84223 37854 ft 389 kts 242°
2026-04-25 02:21 37.12946 -105.89865 37848 ft 389 kts 242°
2026-04-25 02:21 37.09940 -105.95510 37812 ft 389 kts 242°
2026-04-25 02:22 37.06959 -106.01097 37782 ft 388 kts 242°
2026-04-25 02:22 37.03947 -106.06741 37865 ft 393 kts 242°
2026-04-25 02:23 37.00888 -106.12463 37884 ft 398 kts 241°
2026-04-25 02:23 36.97785 -106.18252 37879 ft 402 kts 241°
2026-04-25 02:24 36.94657 -106.24077 37888 ft 405 kts 241°
2026-04-25 02:24 36.91530 -106.29885 37888 ft 399 kts 241°
2026-04-25 02:25 36.88473 -106.35552 37926 ft 394 kts 241°
2026-04-25 02:25 36.85409 -106.41230 37896 ft 393 kts 241°
2026-04-25 02:26 36.82354 -106.46883 37872 ft 392 kts 241°
2026-04-25 02:26 36.79301 -106.52524 37867 ft 392 kts 241°
2026-04-25 02:27 36.76254 -106.58140 37862 ft 390 kts 241°
2026-04-25 02:27 36.73215 -106.63734 37857 ft 389 kts 241°
2026-04-25 02:28 36.70181 -106.69310 37844 ft 388 kts 241°
2026-04-25 02:28 36.67147 -106.74876 37847 ft 387 kts 241°
2026-04-25 02:29 36.64140 -106.80392 37826 ft 387 kts 242°
2026-04-25 02:29 36.61110 -106.85936 37841 ft 387 kts 241°
2026-04-25 02:30 36.58068 -106.91483 37823 ft 387 kts 241°
2026-04-25 02:30 36.55025 -106.97028 37818 ft 388 kts 241°
2026-04-25 02:31 36.51978 -107.02571 37827 ft 388 kts 241°
2026-04-25 02:31 36.48928 -107.08113 37812 ft 389 kts 241°
2026-04-25 02:32 36.45871 -107.13656 37779 ft 389 kts 241°
2026-04-25 02:32 36.42833 -107.19158 37801 ft 389 kts 241°
2026-04-25 02:33 36.39766 -107.24700 37804 ft 390 kts 241°
2026-04-25 02:33 36.36695 -107.30244 37808 ft 390 kts 241°
2026-04-25 02:34 36.33619 -107.35788 37803 ft 390 kts 241°
2026-04-25 02:34 36.30537 -107.41333 37809 ft 390 kts 241°
2026-04-25 02:35 36.27456 -107.46866 37804 ft 389 kts 241°
2026-04-25 02:35 36.24376 -107.52390 37800 ft 389 kts 241°
2026-04-25 02:36 36.21299 -107.57897 37800 ft 389 kts 241°
2026-04-25 02:36 36.18219 -107.63404 37802 ft 389 kts 241°
2026-04-25 02:37 36.15162 -107.68861 37797 ft 389 kts 241°
2026-04-25 02:37 36.12078 -107.74356 37795 ft 388 kts 241°
2026-04-25 02:38 36.08999 -107.79832 37789 ft 387 kts 241°
2026-04-25 02:38 36.05923 -107.85297 37790 ft 387 kts 241°
2026-04-25 02:39 36.02842 -107.90761 37787 ft 387 kts 241°
2026-04-25 02:39 35.99763 -107.96212 37785 ft 387 kts 240°
2026-04-25 02:40 35.96680 -108.01662 37785 ft 387 kts 240°
2026-04-25 02:40 35.93615 -108.07073 37786 ft 387 kts 240°
2026-04-25 02:41 35.90530 -108.12509 37787 ft 387 kts 240°
2026-04-25 02:41 35.87443 -108.17939 37786 ft 387 kts 240°
2026-04-25 02:42 35.84349 -108.23376 37786 ft 387 kts 240°
2026-04-25 02:42 35.81247 -108.28816 37739 ft 387 kts 240°
2026-04-25 02:43 35.78152 -108.34237 37785 ft 387 kts 240°
2026-04-25 02:43 35.75043 -108.39673 37797 ft 388 kts 240°
2026-04-25 02:44 35.71942 -108.45088 37786 ft 389 kts 240°
2026-04-25 02:44 35.68820 -108.50529 37789 ft 390 kts 240°
2026-04-25 02:45 35.65690 -108.55975 37793 ft 390 kts 240°
2026-04-25 02:45 35.62554 -108.61425 37795 ft 390 kts 240°
2026-04-25 02:46 35.59413 -108.66871 37795 ft 390 kts 240°
2026-04-25 02:46 35.56281 -108.72303 37789 ft 389 kts 240°
2026-04-25 02:47 35.53170 -108.77686 37959 ft 389 kts 240°
2026-04-25 02:47 35.50030 -108.83106 37959 ft 389 kts 240°
2026-04-25 02:48 35.46830 -108.88478 37956 ft 392 kts 236°
2026-04-25 02:48 35.43103 -108.93420 37928 ft 396 kts 233°
2026-04-25 02:49 35.39245 -108.98244 37900 ft 396 kts 233°
2026-04-25 02:49 35.35415 -109.03104 37861 ft 396 kts 233°
2026-04-25 02:50 35.31608 -109.07988 37831 ft 396 kts 233°
2026-04-25 02:50 35.27837 -109.12850 37795 ft 396 kts 233°
2026-04-25 02:51 35.24042 -109.17740 37794 ft 396 kts 233°
2026-04-25 02:51 35.20248 -109.22621 37793 ft 396 kts 233°
2026-04-25 02:52 35.16453 -109.27494 37766 ft 395 kts 233°
2026-04-25 02:52 35.12656 -109.32363 37786 ft 395 kts 233°
2026-04-25 02:53 35.08863 -109.37220 37796 ft 395 kts 233°
2026-04-25 02:53 35.05066 -109.42076 37784 ft 395 kts 233°
2026-04-25 02:54 35.01263 -109.46930 37781 ft 395 kts 233°
2026-04-25 02:54 34.97461 -109.51778 37790 ft 395 kts 233°
2026-04-25 02:55 34.93661 -109.56617 37784 ft 395 kts 233°
2026-04-25 02:55 34.89860 -109.61449 37792 ft 395 kts 233°
2026-04-25 02:56 34.86058 -109.66278 37773 ft 394 kts 233°
2026-04-25 02:56 34.82263 -109.71093 37782 ft 394 kts 233°
2026-04-25 02:57 34.78507 -109.75880 37786 ft 393 kts 233°
2026-04-25 02:57 34.74726 -109.80695 37789 ft 393 kts 234°
2026-04-25 02:58 34.71010 -109.85561 37778 ft 387 kts 241°
2026-04-25 02:58 34.68603 -109.91260 37661 ft 375 kts 250°
2026-04-25 02:58 34.67551 -109.94154 37132 ft 371 kts 251°
2026-04-25 02:59 34.66518 -109.97000 36661 ft 367 kts 250°
2026-04-25 02:59 34.65488 -109.99819 36201 ft 363 kts 250°
2026-04-25 02:59 34.64461 -110.02609 35747 ft 360 kts 250°
2026-04-25 02:59 34.63435 -110.05376 35297 ft 357 kts 250°
2026-04-25 03:00 34.62419 -110.08106 34877 ft 354 kts 250°
2026-04-25 03:00 34.61406 -110.10816 34439 ft 351 kts 250°
2026-04-25 03:00 34.60402 -110.13503 34020 ft 348 kts 249°
2026-04-25 03:00 34.59405 -110.16170 33549 ft 346 kts 249°
2026-04-25 03:01 34.58426 -110.18782 33077 ft 343 kts 249°
2026-04-25 03:01 34.57438 -110.21419 32614 ft 341 kts 249°
2026-04-25 03:01 34.56455 -110.24038 32149 ft 339 kts 249°
2026-04-25 03:01 34.55480 -110.26635 31691 ft 338 kts 249°
2026-04-25 03:02 34.54509 -110.29219 31240 ft 336 kts 249°
2026-04-25 03:02 34.53542 -110.31788 30807 ft 334 kts 249°
2026-04-25 03:02 34.52582 -110.34341 30384 ft 333 kts 249°
2026-04-25 03:02 34.51620 -110.36896 29956 ft 332 kts 248°
2026-04-25 03:03 34.50664 -110.39432 29467 ft 330 kts 248°
2026-04-25 03:03 34.49711 -110.41953 28967 ft 328 kts 249°
2026-04-25 03:03 34.49083 -110.43616 28637 ft 327 kts 249°
2026-04-25 03:03 34.47832 -110.46921 27988 ft 324 kts 249°
2026-04-25 03:04 34.46891 -110.49404 27507 ft 323 kts 249°
2026-04-25 03:04 34.45959 -110.51865 27047 ft 321 kts 249°
2026-04-25 03:04 34.45026 -110.54325 26599 ft 320 kts 249°
2026-04-25 03:05 34.43486 -110.58383 25859 ft 318 kts 249°
2026-04-25 03:05 34.42564 -110.60811 25428 ft 317 kts 249°
2026-04-25 03:05 34.41644 -110.63232 25000 ft 316 kts 249°
2026-04-25 03:05 34.40727 -110.65643 24575 ft 315 kts 249°
2026-04-25 03:06 34.39813 -110.68045 24166 ft 314 kts 249°
2026-04-25 03:06 34.38899 -110.70445 23751 ft 313 kts 248°
2026-04-25 03:06 34.37990 -110.72832 23338 ft 312 kts 248°
2026-04-25 03:06 34.37080 -110.75218 22855 ft 311 kts 248°
2026-04-25 03:07 34.36176 -110.77585 22381 ft 310 kts 248°
2026-04-25 03:07 34.35150 -110.79889 21896 ft 313 kts 238°
2026-04-25 03:07 34.33720 -110.81881 21464 ft 314 kts 232°
2026-04-25 03:07 34.32218 -110.83802 21009 ft 314 kts 231°
2026-04-25 03:08 34.30709 -110.85714 20565 ft 313 kts 231°
2026-04-25 03:08 34.29226 -110.87600 20126 ft 312 kts 231°
2026-04-25 03:08 34.27714 -110.89534 19701 ft 312 kts 231°
2026-04-25 03:08 34.26227 -110.91444 19260 ft 312 kts 230°
2026-04-25 03:09 34.24765 -110.93326 18866 ft 311 kts 230°
2026-04-25 03:09 34.23284 -110.95238 18450 ft 310 kts 230°
2026-04-25 03:09 34.21814 -110.97145 18021 ft 310 kts 230°
2026-04-25 03:09 34.20340 -110.99042 17561 ft 309 kts 230°
2026-04-25 03:10 34.18867 -111.00937 17103 ft 309 kts 230°
2026-04-25 03:10 34.17413 -111.02805 16941 ft 299 kts 229°
2026-04-25 03:10 34.16022 -111.04593 16890 ft 287 kts 230°
2026-04-25 03:10 34.14686 -111.06314 16896 ft 275 kts 230°
2026-04-25 03:11 34.13392 -111.07976 16907 ft 270 kts 230°
2026-04-25 03:11 34.12102 -111.09642 16917 ft 273 kts 230°
2026-04-25 03:11 34.10797 -111.11321 16915 ft 276 kts 230°
2026-04-25 03:11 34.09483 -111.13011 16904 ft 276 kts 231°
2026-04-25 03:12 34.08185 -111.14678 16904 ft 277 kts 230°
2026-04-25 03:12 34.07091 -111.16082 16895 ft 277 kts 230°
2026-04-25 03:12 34.05769 -111.17778 16887 ft 277 kts 230°
2026-04-25 03:12 34.04446 -111.19475 16880 ft 277 kts 230°
2026-04-25 03:13 34.03137 -111.21160 16871 ft 272 kts 230°
2026-04-25 03:13 34.01863 -111.22786 16863 ft 261 kts 230°
2026-04-25 03:13 34.00645 -111.24339 16853 ft 248 kts 230°
2026-04-25 03:13 33.99493 -111.25810 16849 ft 235 kts 230°
2026-04-25 03:14 33.98376 -111.27240 16392 ft 235 kts 230°
2026-04-25 03:14 33.97261 -111.28671 15955 ft 234 kts 230°
2026-04-25 03:14 33.96148 -111.30096 15502 ft 233 kts 230°
2026-04-25 03:14 33.95039 -111.31515 15060 ft 232 kts 230°
2026-04-25 03:15 33.93941 -111.32919 14604 ft 230 kts 229°
2026-04-25 03:15 33.92842 -111.34325 14171 ft 230 kts 229°
2026-04-25 03:15 33.91745 -111.35726 13743 ft 229 kts 229°
2026-04-25 03:15 33.90652 -111.37120 13290 ft 229 kts 229°
2026-04-25 03:16 33.89554 -111.38511 12792 ft 228 kts 229°
2026-04-25 03:16 33.88469 -111.39898 12357 ft 228 kts 229°
2026-04-25 03:16 33.87301 -111.41194 11891 ft 229 kts 219°
2026-04-25 03:16 33.86011 -111.42288 11452 ft 230 kts 217°
2026-04-25 03:17 33.84692 -111.43381 11009 ft 230 kts 217°
2026-04-25 03:17 33.83384 -111.44482 10579 ft 229 kts 217°
2026-04-25 03:17 33.82081 -111.45590 10147 ft 229 kts 217°
2026-04-25 03:17 33.80779 -111.46704 9719 ft 229 kts 216°
2026-04-25 03:18 33.79476 -111.47776 9441 ft 222 kts 210°
2026-04-25 03:18 33.78055 -111.48312 9397 ft 207 kts 194°
2026-04-25 03:18 33.76698 -111.48630 9386 ft 193 kts 195°
2026-04-25 03:18 33.75387 -111.48949 9385 ft 192 kts 195°
2026-04-25 03:19 33.74074 -111.49270 9396 ft 193 kts 195°
2026-04-25 03:19 33.72756 -111.49592 9401 ft 193 kts 195°
2026-04-25 03:19 33.71437 -111.49914 9393 ft 193 kts 195°
2026-04-25 03:19 33.70124 -111.50234 9366 ft 192 kts 194°
2026-04-25 03:20 33.68827 -111.50551 9383 ft 191 kts 195°
2026-04-25 03:20 33.67523 -111.50869 9389 ft 192 kts 194°
2026-04-25 03:20 33.66193 -111.51193 9216 ft 198 kts 195°
2026-04-25 03:20 33.64830 -111.51526 8961 ft 199 kts 194°
2026-04-25 03:21 33.63488 -111.51852 8701 ft 196 kts 194°
2026-04-25 03:21 33.62279 -111.52146 8467 ft 192 kts 194°
2026-04-25 03:21 33.60964 -111.52465 8198 ft 189 kts 195°
2026-04-25 03:21 33.59685 -111.52776 7953 ft 190 kts 195°
2026-04-25 03:22 33.58417 -111.53206 7706 ft 189 kts 202°
2026-04-25 03:22 33.57181 -111.53738 7471 ft 189 kts 203°
2026-04-25 03:22 33.55932 -111.54234 7207 ft 189 kts 202°
2026-04-25 03:22 33.54692 -111.54772 7036 ft 190 kts 203°
2026-04-25 03:23 33.53413 -111.55344 7029 ft 198 kts 203°
2026-04-25 03:23 33.52136 -111.55918 6976 ft 194 kts 204°
2026-04-25 03:23 33.50895 -111.56507 7007 ft 190 kts 208°
2026-04-25 03:23 33.49697 -111.57212 6862 ft 195 kts 210°
2026-04-25 03:24 33.48486 -111.57936 6621 ft 192 kts 208°
2026-04-25 03:24 33.47309 -111.58639 6374 ft 192 kts 211°
2026-04-25 03:24 33.46202 -111.59542 6146 ft 189 kts 220°
2026-04-25 03:24 33.45147 -111.60503 6066 ft 195 kts 219°
2026-04-25 03:25 33.44227 -111.61639 6005 ft 188 kts 248°
2026-04-25 03:25 33.44092 -111.63163 6036 ft 187 kts 269°
2026-04-25 03:25 33.44089 -111.64722 6019 ft 183 kts 269°
2026-04-25 03:25 33.44095 -111.66175 5994 ft 166 kts 269°
2026-04-25 03:26 33.44098 -111.67502 6073 ft 156 kts 269°
2026-04-25 03:26 33.44098 -111.68831 5890 ft 158 kts 269°
2026-04-25 03:26 33.44097 -111.70136 5700 ft 156 kts 269°
2026-04-25 03:26 33.44095 -111.71415 5495 ft 152 kts 269°
2026-04-25 03:27 33.44093 -111.72665 5303 ft 151 kts 269°
2026-04-25 03:27 33.44091 -111.73916 5121 ft 150 kts 269°
2026-04-25 03:27 33.44090 -111.75166 4923 ft 151 kts 269°
2026-04-25 03:27 33.44088 -111.76417 4731 ft 150 kts 269°
2026-04-25 03:28 33.44087 -111.77667 4538 ft 149 kts 269°
2026-04-25 03:28 33.44085 -111.78906 4349 ft 148 kts 268°
2026-04-25 03:28 33.44084 -111.80142 4150 ft 149 kts 268°
2026-04-25 03:28 33.44083 -111.81384 3953 ft 149 kts 268°
2026-04-25 03:29 33.44082 -111.82624 3750 ft 148 kts 269°
2026-04-25 03:29 33.44081 -111.83830 3567 ft 146 kts 268°
2026-04-25 03:29 33.44081 -111.85036 3382 ft 143 kts 269°
2026-04-25 03:29 33.44080 -111.86212 3203 ft 140 kts 269°
2026-04-25 03:30 33.44080 -111.87381 3012 ft 141 kts 267°
2026-04-25 03:30 33.44079 -111.88556 2821 ft 140 kts 268°
2026-04-25 03:30 33.44079 -111.89707 2663 ft 138 kts 268°
2026-04-25 03:30 33.44079 -111.90858 2476 ft 137 kts 269°
2026-04-25 03:31 33.44079 -111.92002 2276 ft 140 kts 269°
2026-04-25 03:31 33.44076 -111.93195 2122 ft 147 kts 268°
2026-04-25 03:31 33.44065 -111.94438 2002 ft 152 kts 269°
2026-04-25 03:31 33.44066 -111.95725 1846 ft 156 kts 270°
2026-04-25 03:32 33.44073 -111.97042 1642 ft 160 kts 271°
2026-04-25 03:32 33.44067 -111.98370 1361 ft 158 kts 271°
2026-04-25 03:32 33.44090 -111.99638 1142 ft 143 kts 270°
2026-04-25 03:32 33.44088 -112.00665 1129 ft 96 kts 270°
2026-04-25 03:33 33.44090 -112.01185 1131 ft 37 kts 268°
2026-04-25 03:33 33.44027 -112.01361 1134 ft 18 kts 223°
2026-04-25 03:33 33.43977 -112.01331 1132 ft 10 kts 100°
2026-04-25 03:33 33.43978 -112.01250 1134 ft 10 kts 90°
2026-04-25 03:34 33.43976 -112.01139 1134 ft 20 kts 91°
2026-04-25 03:34 33.43973 -112.00965 1131 ft 21 kts 90°
2026-04-25 03:34 33.43974 -112.00791 1132 ft 21 kts 90°
2026-04-25 03:34 33.43974 -112.00609 1133 ft 22 kts 89°
2026-04-25 03:35 33.43974 -112.00431 1131 ft 21 kts 91°
2026-04-25 03:35 33.43975 -112.00255 1132 ft 20 kts 89°
2026-04-25 03:35 33.43974 -112.00089 1132 ft 20 kts 90°
2026-04-25 03:35 33.43973 -111.99927 1134 ft 19 kts 90°
2026-04-25 03:36 33.43973 -111.99769 1132 ft 19 kts 90°
2026-04-25 03:36 33.43969 -111.99617 1132 ft 18 kts 102°
2026-04-25 03:36 33.43907 -111.99493 1131 ft 18 kts 97°
2026-04-25 03:36 33.43904 -111.99355 1131 ft 11 kts 96°
2026-04-25 03:37 33.43858 -111.99310 1132 ft 9 kts 178°
2026-04-25 03:37 33.43796 -111.99311 1132 ft 9 kts 186°
2026-04-25 03:37 33.43775 -111.99370 1130 ft 8 kts 269°
2026-04-25 03:37 33.43775 -111.99379 1130 ft 0 kts 269°